Location: Central Coast
(33.3208°S, 151.2336°E)
Time: 09:54:33
(UTC+10:00)

ISS - Visible Passes

Search period start: 19 July 2018 00:00
Search period end: 29 July 2018 00:00
Orbit: 402 x 408 km, 51.6° (Epoch: 19 July)

Date Brightness Start Highest point End Pass type
(mag) Time Alt. Az. Time Alt. Az. Time Alt. Az.
24 Jul -0.6 05:51:16 10° NNE 05:53:17 15° NE 05:55:19 10° E visible
26 Jul -2.5 05:42:03 10° NNW 05:45:12 43° NE 05:48:24 10° ESE visible
27 Jul -1.2 04:51:49 16° NNE 04:53:09 20° NE 04:55:41 10° E visible
28 Jul -3.8 05:35:51 31° WNW 05:37:13 60° SW 05:40:32 10° SE visible
